Location: Borderline Observatory
(42.7345°N, 72.8696°W)
Time: 02:18:48
(UTC-04:00)

Daily predictions for brighter satellites

Satellite Brightness Start Highest point End
(mag) Time Altitude Azimuth Time Altitude Azimuth Time Altitude Azimuth
Cosmos 1869 Rocket 3.4 00:04:37 75° SSE 00:04:56 81° E 00:09:26 10° N
Cosmos 2333 Rocket 2.8 00:00:24 10° NW 00:05:52 46° WSW 00:07:11 39° SW
ALOS 2 2.7 00:06:37 59° ESE 00:07:00 63° ENE 00:11:21 10° N
CZ-4C R/B 3.4 00:10:20 60° N 00:10:20 60° N 00:13:19 10° N
SL-16 R/B 2.2 00:06:30 10° NNW 00:12:13 81° ENE 00:13:41 52° SE
Lacrosse 4 Rocket 1.7 00:09:42 10° NNW 00:14:07 63° ENE 00:14:35 58° E
Cosmos 1455 4.5 00:19:19 10° NW 00:21:37 16° W 00:21:56 15° W
Cosmos 372 Rocket 3.9 00:22:14 60° SE 00:22:51 66° ESE 00:28:04 10° NNE
Cosmos 2074 Rocket 4.0 00:22:06 49° SSE 00:23:51 75° E 00:30:10 10° N
Landsat 5 3.6 00:23:40 68° ESE 00:23:59 72° ENE 00:28:30 10° N
ASTEX 1 3.3 00:19:37 10° NNE 00:24:30 66° E 00:24:59 61° SE
Meteor 1-26 Rocket 4.2 00:20:36 10° NNW 00:26:12 77° W 00:27:26 55° SSW
Cosmos 158 Rocket 4.3 00:21:38 10° NNW 00:26:54 59° ENE 00:28:06 47° ESE
Cosmos 2297 Rocket 2.6 00:25:45 33° SW 00:28:10 57° WNW 00:33:46 10° NNE
ERBS 3.3 00:30:25 47° N 00:30:25 47° N 00:33:09 10° NE
H-2A R/B 2.4 00:26:15 10° N 00:30:26 82° WNW 00:30:32 81° WSW
CZ-4C R/B 4.1 00:25:48 10° NNW 00:32:02 35° NE 00:38:53 10° ESE
Cosmos 2221 Rocket 4.4 00:28:44 10° NNW 00:33:00 40° W 00:33:22 39° WSW
Cosmos 2327 Rocket 4.5 00:31:44 50° S 00:33:34 87° E 00:40:01 10° N
GEOS 3 Rocket 3.9 00:35:41 47° SW 00:35:59 48° WSW 00:41:01 10° NW
Cosmos 2219 Rocket 3.9 00:33:45 10° WNW 00:37:28 18° W 00:38:24 18° WSW
ATLAS 2AS CENTAUR R/B 3.2 00:32:38 21° SW 00:38:06 68° NW 00:46:12 10° NNE
Helios 1B 4.4 00:38:25 78° WSW 00:38:27 79° WSW 00:42:49 10° NNW
COSMOS 2455 2.9 00:35:03 10° NW 00:41:01 63° WSW 00:42:06 53° SSW
CZ-2C R/B 3.0 00:36:32 10° NNE 00:41:34 45° E 00:42:07 43° ESE
Okean 1-7 3.6 00:38:12 10° NNW 00:42:15 46° W 00:42:15 46° W
Cosmos 2251 Rocket 3.8 00:39:18 10° NNW 00:44:37 63° ENE 00:45:50 49° ESE
Cosmos 1603 4.0 00:40:01 10° NNW 00:45:39 59° ENE 00:47:32 40° ESE
Meteor 2-10 Rocket 3.7 00:41:01 10° N 00:46:34 74° E 00:47:50 54° SE
MOS 1-B Rocket 3.9 00:47:44 48° SE 00:49:22 73° ENE 00:54:57 10° N
Cosmos 2154 Rocket 4.3 00:47:46 44° SE 00:49:27 58° E 00:55:36 10° NNE
Cosmos 1606 4.2 00:49:33 10° NNE 00:52:54 27° ENE 00:52:58 27° ENE
Geosat 3.9 00:51:06 10° NNE 00:56:09 82° WNW 00:57:05 60° SW
Cosmos 389 Rocket 4.1 00:53:12 10° NNW 00:55:35 27° WNW 00:55:35 27° WNW
Cosmos 1674 Rocket 3.7 00:52:13 10° N 00:56:37 64° E 00:56:48 63° E
Meteor 1-10 Rocket 4.3 00:52:15 10° N 00:58:12 76° E 00:59:45 51° SSE
Meteor 2-3 Rocket 4.0 00:57:40 46° SW 00:59:11 63° WNW 01:04:53 10° N
Cosmos 1607 4.5 00:54:51 10° NNW 01:00:53 54° NE 01:04:27 24° ESE
ATLAS 3B R/B 2.8 00:54:13 10° NW 01:00:56 52° WSW 01:02:13 46° SSW
Cosmos 2184 Rocket 4.2 00:59:54 42° SW 01:01:51 60° W 01:07:59 10° N
Helios 1A Rocket 3.0 00:57:49 10° N 01:01:58 68° WNW 01:01:59 68° WNW
USA 238 DEB 3.7 00:55:53 10° NW 01:02:58 83° NE 01:06:14 35° SE
USA 238 3.7 00:55:59 10° NW 01:03:04 82° NE 01:06:23 35° SE
Cosmos 2237 Rocket 4.0 01:00:58 10° WNW 01:04:30 17° W 01:05:04 17° WSW
Cosmos 1932 4.4 01:01:07 10° NNW 01:07:33 89° WSW 01:09:45 45° SSE
FALCON 9 R/B 3.9 01:02:53 10° W 01:09:34 25° WSW 01:09:34 25° WSW
Cosmos 1892 3.2 01:11:42 54° NW 01:11:42 54° NW 01:15:02 10° N
Cosmos 1908 Rocket 3.9 01:12:15 51° E 01:12:17 51° E 01:16:30 10° NNE
NOSS 2-3 (E) 4.3 01:11:17 44° WSW 01:12:45 65° NW 01:18:30 10° NNE
Cosmos 921 Rocket 3.3 01:14:28 53° E 01:14:28 53° E 01:18:18 10° NNE
Cosmos 44 3.7 01:14:57 51° SE 01:15:21 52° ESE 01:20:39 10° NE
CZ-4B R/B 3.7 01:17:43 18° WNW 01:17:43 18° WNW 01:19:21 10° NW
Cosmos 2341 Rocket 4.0 01:16:06 48° SSE 01:17:58 76° E 01:24:22 10° N
Uosat 12 SS-18 rocket 4.1 01:18:54 72° SSW 01:19:24 89° SE 01:23:56 10° NE
H-2A ROCKET BODY 4.3 00:53:29 10° W 01:21:50 35° SW 01:23:23 34° SSW
Cosmos 1782 3.0 01:20:25 10° NNW 01:23:58 62° WNW 01:23:58 62° WNW
Cosmos 2084 Rocket 3.5 01:25:05 62° NE 01:25:05 62° NE 01:28:19 10° NE
PSLV R/B 3.9 01:25:18 71° E 01:25:23 71° ENE 01:29:27 10° N
Sich 1 Rocket 3.5 01:27:48 77° WSW 01:28:01 80° W 01:32:34 10° N
USA 234 3.7 01:22:30 10° ESE 01:28:55 61° NE 01:35:22 10° NW
Cosmos 494 Rocket 3.9 01:23:47 10° NNW 01:29:04 79° WSW 01:29:54 62° S
Cosmos 1340 Rocket 3.8 01:32:25 36° WNW 01:32:25 36° WNW 01:36:00 10° N
Cosmos 962 Rocket 4.4 01:32:22 50° SSW 01:34:06 83° W 01:40:15 10° N
RESURS DK-1 4.4 01:38:38 18° ESE 01:38:38 18° ESE 01:41:23 10° ENE
Cosmos 44 Rocket 4.2 01:39:15 32° WSW 01:41:11 46° NW 01:46:15 10° NNE
Cosmos 1825 2.4 01:42:13 66° ENE 01:42:13 66° ENE 01:45:46 10° NNE
SL-8 Rocket 4.1 01:40:17 43° SSE 01:42:25 70° E 01:48:43 10° NNE
Cosmos 2218 Rocket 4.2 01:43:58 39° SSE 01:46:12 62° E 01:52:26 10° NNE
Cosmos 1733 Rocket 4.3 01:46:04 29° W 01:46:36 30° WNW 01:50:32 10° NNW
Cosmos 1408 2.7 01:49:45 78° NE 01:49:45 78° NE 01:53:19 10° N
Coronas F rocket 4.2 01:53:28 13° NW 01:53:28 13° NW 01:54:10 10° NNW
Lacrosse 4 Rocket 3.9 01:50:03 10° WNW 01:50:55 12° W 01:50:55 12° W
Cosmos 2263 Rocket 2.6 01:51:58 41° SSE 01:53:25 52° ESE 01:58:55 10° NE
SL-16 R/B 4.1 01:52:39 10° WNW 01:55:32 14° W 01:55:32 14° W
Meteor 1-27 Rocket 3.9 01:50:09 10° NNW 01:55:56 61° W 01:57:21 47° SSW
BREEZE-M DEB (TANK) 3.8 01:54:36 10° WNW 01:57:18 25° W 01:57:18 25° W
NOSS 3-4 (A) 3.6 01:57:31 43° S 01:59:33 64° ESE 02:06:03 10° NE
NOSS 3-4 (C) 3.6 01:57:37 43° S 01:59:38 63° ESE 02:06:08 10° NE
Cosmos 1378 Rocket 3.8 01:55:37 10° NNW 01:59:53 52° W 02:00:01 52° W
NOSS 3-2 (A) 4.0 01:54:13 10° NW 02:01:44 86° NE 02:09:08 13° SE
Meteor 2-13 Rocket 4.4 02:00:36 45° SSW 02:02:36 75° W 02:08:45 10° N
Okean 3 3.5 01:59:18 10° NNW 02:03:34 64° W 02:03:49 63° WSW
Cosmos 2366 rocket 4.0 02:01:50 40° S 02:04:10 74° E 02:10:21 10° NNE
Cosmos 1862 3.7 02:06:05 48° W 02:06:11 48° WNW 02:10:05 10° N
Cosmos 1371 Rocket 4.5 02:07:02 39° SSE 02:08:36 52° ESE 02:13:48 10° NNE
Cosmos 2056 Rocket 4.4 02:08:22 30° SE 02:10:06 39° ESE 02:14:58 10° NE
Okean 2 Rocket 3.1 02:10:09 60° SW 02:10:51 73° W 02:15:23 10° N
CZ-2C R/B 3.9 02:11:35 35° WSW 02:12:43 39° W 02:18:01 10° NNW
Cosmos 1238 Rocket 4.1 02:09:31 10° NNW 02:12:49 27° WNW 02:12:49 27° WNW
JB-3 4.1 02:16:10 10° NNE 02:20:03 78° ESE 02:20:28 67° SSE
Cosmos 1782 Rocket 4.0 02:19:57 43° WSW 02:20:33 47° WNW 02:24:48 10° N
CZ-4C R/B 2.8 02:14:03 10° NW 02:21:07 67° WSW 02:26:09 23° SSE
CZ-2C R/B 4.2 02:17:25 10° NNW 02:21:33 24° WNW 02:23:38 19° W
Cosmos 1943 3.3 02:16:30 10° NNW 02:22:03 56° WSW 02:23:35 42° SSW
Cosmos 1727 Rocket 3.9 02:17:28 10° N 02:23:45 87° W 02:26:42 34° S
Tiangong 1 3.8 02:27:06 11° ESE 02:27:06 11° ESE 02:27:13 10° ESE
Meteor 2-8 Rocket 4.4 02:18:13 10° N 02:24:20 84° E 02:27:26 31° SSE
IRS-P3 4.3 02:19:34 10° NNE 02:24:55 65° ESE 02:27:01 36° S
Cosmos 864 Rocket 4.4 02:27:04 38° SSW 02:29:37 76° W 02:35:48 10° N
Landsat 4 3.6 02:33:45 64° SW 02:34:05 68° WSW 02:37:52 10° NNW
PSLV R/B 3.9 02:35:28 10° N 02:39:35 51° WNW 02:40:32 41° WSW
Cosmos 1867 3.5 02:34:16 10° NW 02:39:45 77° WSW 02:43:22 22° SSE
Resurs 1-4 Rocket 4.2 02:36:54 10° NE 02:40:46 20° E 02:44:35 10° SE
CRYOSAT 2 4.4 02:36:09 10° N 02:40:56 63° W 02:42:31 40° SW
Cosmos 1975 Rocket 4.2 02:39:09 10° NNW 02:42:53 27° W 02:43:12 27° W
USA 161 3.7 02:44:56 17° ESE 02:46:17 24° ENE 02:48:41 10° NNE
Cosmos 1242 Rocket 2.4 02:43:19 10° NNW 02:46:47 63° W 02:47:00 61° WSW
BREEZE-M DEB (TANK) 4.0 02:34:47 10° WSW 02:47:05 55° NNW 02:50:44 10° NE
Cosmos 1300 Rocket 4.2 02:46:40 27° SSE 02:48:39 48° E 02:52:52 10° NNE
Cosmos 1536 Rocket 3.5 02:50:33 10° NNW 02:54:53 65° W 02:56:23 39° SSW
Cosmos 1624 Rocket 4.0 02:52:41 35° SSW 02:54:55 77° WNW 03:00:11 10° NNE
IRAS Rocket 4.2 02:51:17 10° NNE 02:56:48 77° WNW 02:59:36 31° SSW
NPP 3.7 02:58:43 10° N 03:04:05 69° WNW 03:06:51 29° SSW
Meteor 1-20 Rocket 4.3 03:01:49 26° S 03:05:15 88° E 03:11:06 10° N
SL-16 R/B 3.3 03:01:57 10° SE 03:08:00 54° ENE 03:14:02 10° N
ADEOS 3.6 03:03:03 10° NNE 03:08:19 78° ESE 03:11:28 25° S
Cosmos 2151 Rocket 4.3 03:07:47 30° WSW 03:09:17 39° WNW 03:13:29 10° N
Cosmos 1000 Rocket 4.4 03:03:50 10° N 03:10:00 86° W 03:14:53 17° S
Okean 1 3.2 03:06:35 10° N 03:10:35 88° W 03:12:40 27° S
Iridium 4 Rocket 3.9 03:06:25 10° NNW 03:10:41 40° W 03:12:32 28° SW
BREEZE-M TANK 1.4 03:07:49 10° WNW 03:10:51 71° SSW 03:13:30 10° ESE
USA 234 3.5 03:05:57 10° SSE 03:12:04 43° SW 03:18:14 10° WNW
Okean 1-7 Rocket 3.7 03:07:30 10° N 03:12:05 78° E 03:15:29 18° SSE
Cosmos 1812 2.7 03:09:05 10° NNW 03:12:59 70° W 03:14:38 32° S
ARIANE 5 R/B 3.1 03:09:42 10° NNE 03:14:35 52° E 03:18:19 17° S
Cosmos 1452 Rocket 3.7 03:12:59 23° S 03:16:13 66° ESE 03:21:27 10° NNE
Abrixas rocket 2.1 03:15:16 42° WSW 03:16:18 85° SSE 03:19:40 10° ENE
RESURS DK-1 3.1 03:14:33 27° WSW 03:16:19 41° WNW 03:20:17 10° NNE
ERS-2 2.6 03:14:33 10° N 03:18:09 47° WNW 03:19:28 31° SW
CBERS-1 4.3 03:17:24 10° N 03:22:25 54° WNW 03:25:21 24° SW
Okean O Rocket 4.0 03:22:14 10° NE 03:25:13 18° E 03:28:10 10° SE
Okean 1 Rocket 3.0 03:23:13 26° SSW 03:25:38 74° W 03:30:07 10° N
NOSS 3-2 (C) 4.5 03:20:35 10° NW 03:27:28 38° WSW 03:34:29 11° S
CZ-2D R/B 2.8 03:24:05 10° NNE 03:29:25 53° E 03:34:28 11° S
CENTAUR R/B 3.3 03:22:04 10° NW 03:29:53 78° NE 03:38:11 10° SE
Cosmos 1605 Rocket 4.4 03:24:08 11° S 03:30:00 61° E 03:36:10 10° NNE
Cosmos 1821 Rocket 4.0 03:26:36 19° SSW 03:31:23 79° W 03:37:50 10° N
Cosmos 2123 Rocket 4.1 03:25:53 10° N 03:32:15 79° E 03:38:34 10° S
GP-B 3.6 03:30:31 10° NNW 03:34:44 43° W 03:37:07 23° SW
Cosmos 1844 Rocket 2.8 03:31:31 19° SSW 03:35:36 78° ESE 03:41:18 10° NNE
Cosmos 1844 4.1 03:32:22 16° S 03:36:49 59° ESE 03:42:29 10° NNE
Cosmos 2263 Rocket 3.6 03:33:39 13° WSW 03:37:38 26° NW 03:42:23 10° N
COSMOS 2406 3.4 03:35:37 10° NW 03:41:11 51° WSW 03:46:42 10° S
Meteor 2-14 Rocket 4.4 03:46:33 14° SSW 03:51:53 77° W 03:57:59 10° N
Cosmos 2278 Rocket 2.8 03:46:40 11° S 03:52:00 53° ESE 03:57:31 10° NNE
Cosmos 1455 Rocket 4.3 03:48:40 10° SSE 03:52:50 41° E 03:57:02 10° NNE
Cosmos 1461 4.3 03:49:34 11° S 03:53:42 38° ESE 03:58:00 10° NE
Cosmos 1140 Rocket 3.4 03:50:30 10° NNW 03:55:40 88° WSW 04:00:48 10° SSE
UNK 3.7 03:52:34 10° S 03:57:08 68° WSW 04:01:47 10° NNW
Cosmos 1602 3.9 03:55:28 17° SSW 03:58:16 57° W 04:02:05 10° N
Cosmos 1850 Rocket 4.2 03:53:28 10° NNW 03:58:43 76° ENE 04:03:58 10° SSE
NOSS 2-2 (D) 3.8 03:55:43 15° SSW 03:59:00 62° ESE 04:03:44 10° NE
Cosmos 1741 Rocket 4.3 03:53:56 10° NNW 03:59:15 74° ENE 04:04:29 10° SSE
Tiangong 1 2.1 03:59:17 19° WSW 04:00:29 24° SSW 04:03:02 10° SSE
Cosmos 1025 Rocket 3.0 03:56:46 10° NNW 04:01:01 66° W 04:05:16 10° S
Cosmos 407 Rocket 4.4 03:57:31 10° NW 04:01:55 29° W 04:05:49 12° SSW
ATLAS 5 CENTAUR R/B 3.3 03:56:58 10° NNW 04:02:47 54° NE 04:08:58 10° SE
CZ-4B R/B 4.3 04:01:36 10° NNE 04:07:01 44° E 04:12:23 10° S
Cosmos 1536 2.9 04:04:07 13° SSW 04:07:43 64° W 04:11:47 10° N
Meteor 2-4 Rocket 3.6 04:02:49 10° NNW 04:08:16 84° W 04:13:37 10° S
CZ-4C R/B 4.5 04:05:34 10° W 04:08:45 13° WSW 04:11:13 11° SW
Cosmos 2082 Rocket 4.0 04:04:15 10° N 04:09:33 37° ENE 04:14:48 10° SE
SL-27 R/B 4.1 04:09:14 10° NW 04:11:54 19° W 04:13:49 14° SW
NOSS 2-2 (C) 3.6 04:09:51 13° SSW 04:13:29 87° ESE 04:18:19 10° NE
IRS-1D 4.0 04:11:24 10° N 04:16:17 46° WNW 04:20:59 10° SW
USA 161 3.6 04:16:08 11° WSW 04:16:45 12° W 04:17:56 10° WNW
Cosmos 1544 Rocket 3.6 04:13:37 10° SSW 04:18:02 75° W 04:22:28 10° N
UNKNOWN OBJECT B 3.0 04:14:39 10° N 04:18:43 66° WNW 04:22:46 10° SSW
Gbstr 26 Del rocket 2.6 04:16:43 12° SW 04:20:17 89° NNW 04:24:01 10° NE
Resurs 1-4 Rocket 2.4 04:15:44 10° N 04:20:56 54° WNW 04:26:04 10° SSW
PSLV R/B 4.2 04:18:10 10° NNE 04:22:20 71° E 04:26:27 10° S
OTV 4 2.4 04:22:22 12° SW 04:23:10 13° SSW 04:24:40 10° S
Cosmos 2100 Rocket 4.4 04:17:19 10° S 04:23:29 70° E 04:29:46 10° NNE
IRS-1C Rocket 4.2 04:19:51 10° NNE 04:25:09 85° ESE 04:30:25 10° SSW
Cosmos 1459 Rocket 4.4 04:20:34 10° S 04:26:52 70° E 04:33:10 10° NNE
Timation 2 Rocket 3.9 04:29:03 10° NNW 04:35:15 83° WSW 04:41:14 10° SSE
Cosmos 1892 Rocket 4.1 04:34:28 10° NNW 04:38:31 38° W 04:42:32 10° SSW
BREEZE-M DEB (TANK) 3.9 04:29:34 10° WNW 04:38:56 51° N 04:41:59 10° E
NOSS 2-2 (E) 4.1 04:35:48 10° SW 04:39:57 52° NW 04:44:55 10° NNE
